GW2061 Weather Reports


time (UTC)temp
C
wind
direction
speed
KPH
gust
KPH
rain 1hr
cm
rain 24hr
cm
rain mn
cm
humidity
%
barometer
mb
20260506224342 15 214 4.8 8.0 0.00 0.00 0.00 75 1012.8
20260506223838 15 228 6.4 11.3 0.00 0.00 0.00 76 1012.8
20260506223333 15 164 4.8 8.0 0.00 0.00 0.00 76 1013.0
20260506222831 15 178 9.7 12.9 0.00 0.00 0.00 76 1012.9
20260506222326 15 154 6.4 9.7 0.00 0.00 0.00 76 1012.9
20260506221825 15 158 6.4 11.3 0.00 0.00 0.00 75 1012.9
20260506221322 15 149 8.0 11.3 0.00 0.00 0.00 75 1012.7
20260506220819 15 131 12.9 16.1 0.00 0.00 0.00 74 1012.7
20260506220314 15 128 12.9 20.9 0.00 0.00 0.00 74 1012.9
20260506215811 15 169 6.4 8.0 0.00 0.97 0.97 74 1012.8
20260506215307 15 178 4.8 9.7 0.00 0.97 0.97 73 1012.7
20260506214803 15 117 9.7 12.9 0.00 0.97 0.97 73 1012.6
20260506214300 15 125 11.3 24.1 0.00 0.97 0.97 74 1012.6
20260506213758 15 123 12.9 20.9 0.00 0.97 0.97 76 1012.8
20260506213254 15 207 4.8 8.0 0.00 0.97 0.97 76 1012.8
20260506212752 15 191 12.9 17.7 0.00 0.97 0.97 76 1012.7
20260506212248 15 148 8.0 11.3 0.00 0.97 0.97 77 1012.8
20260506211743 15 117 4.8 9.7 0.00 0.97 0.97 78 1012.7
20260506211240 15 209 8.0 9.7 0.00 0.97 0.97 77 1012.4
20260506210737 15 156 6.4 11.3 0.00 0.97 0.97 78 1012.8
20260506210233 15 168 11.3 14.5 0.00 0.97 0.97 79 1012.6
20260506205730 15 151 11.3 17.7 0.00 0.97 0.97 80 1012.6
20260506205225 15 194 4.8 8.0 0.00 0.97 0.97 79 1012.6
20260506204718 15 118 8.0 12.9 0.00 0.97 0.97 80 1012.5
20260506204215 15 152 8.0 12.9 0.00 0.97 0.97 79 1012.3
20260506203713 15 178 6.4 11.3 0.00 0.97 0.97 79 1012.5
20260506203210 15 197 9.7 17.7 0.00 0.97 0.97 80 1012.4
20260506202708 15 148 4.8 8.0 0.00 0.97 0.97 80 1012.4
20260506202203 15 119 9.7 17.7 0.00 0.97 0.97 80 1012.6
20260506201701 15 177 11.3 20.9 0.00 0.97 0.97 80 1012.4
20260506201156 15 191 4.8 4.8 0.00 0.97 0.97 79 1012.4
20260506200654 15 155 9.7 14.5 0.00 0.97 0.97 80 1012.5
20260506200150 15 121 14.5 17.7 0.00 0.97 0.97 80 1012.3
20260506195647 15 188 6.4 11.3 0.00 0.97 0.97 80 1012.2
20260506195143 15 135 14.5 22.5 0.00 0.97 0.97 81 1012.2
20260506194641 15 185 14.5 20.9 0.00 0.97 0.97 81 1012.1
20260506194137 15 149 4.8 9.7 0.00 0.97 0.97 81 1012.1
20260506193635 15 113 8.0 12.9 0.00 0.97 0.97 82 1012.3
20260506193132 15 205 9.7 14.5 0.00 0.97 0.97 82 1012.1
20260506192628 15 175 9.7 14.5 0.00 0.97 0.97 83 1012.1
20260506192124 15 241 11.3 16.1 0.00 0.97 0.97 83 1012.1
20260506191621 15 144 8.0 12.9 0.00 0.97 0.97 83 1012.2
20260506191117 15 164 9.7 12.9 0.00 0.97 0.97 84 1012.2
20260506190615 15 156 6.4 11.3 0.00 0.97 0.97 84 1012.2
20260506190111 15 130 6.4 8.0 0.00 0.97 0.97 83 1011.9
20260506185609 15 221 9.7 14.5 0.00 0.97 0.97 84 1011.9
20260506185105 15 118 11.3 16.1 0.00 0.97 0.97 84 1011.8
20260506184602 15 153 8.0 11.3 0.00 0.97 0.97 84 1011.7
20260506184100 15 156 11.3 20.9 0.00 0.97 0.97 84 1011.6
20260506183556 15 152 14.5 17.7 0.00 0.97 0.97 85 1011.8
20260506183052 15 157 16.1 22.5 0.00 0.97 0.97 85 1011.6
20260506182550 15 167 11.3 16.1 0.00 0.97 0.97 86 1011.3
20260506182047 15 192 9.7 14.5 0.00 0.97 0.97 86 1011.7
20260506181545 15 191 4.8 11.3 0.00 0.97 0.97 86 1011.4
20260506181041 15 196 11.3 14.5 0.00 0.97 0.97 87 1011.2
20260506180538 15 134 4.8 8.0 0.00 0.97 0.97 87 1011.3
20260506180035 15 162 9.7 12.9 0.00 0.97 0.97 88 1011.3
20260506175531 15 257 11.3 20.9 0.00 0.97 0.97 87 1011.3
20260506175027 15 131 16.1 22.5 0.00 0.97 0.97 87 1011.7
20260506174526 15 173 4.8 8.0 0.00 0.97 0.97 88 1011.3
20260506174022 15 155 11.3 16.1 0.00 0.97 0.97 88 1011.3
20260506173520 15 143 11.3 20.9 0.00 0.97 0.97 88 1011.7
20260506173017 15 150 14.5 20.9 0.00 0.97 0.97 88 1011.8
20260506172514 15 189 6.4 11.3 0.00 0.97 0.97 89 1011.4
20260506172010 15 136 6.4 8.0 0.00 0.97 0.97 89 1011.4
20260506171508 15 144 8.0 12.9 0.00 0.97 0.97 90 1011.8
20260506171005 15 186 9.7 12.9 0.00 0.97 0.97 90 1011.4
20260506170501 15 130 6.4 11.3 0.00 0.97 0.97 90 1011.4
20260506165954 15 148 8.0 14.5 0.00 0.97 0.97 90 1011.6
20260506165452 15 191 6.4 11.3 0.00 0.97 0.97 90 1011.6
20260506164942 15 150 9.7 12.9 0.00 0.97 0.97 90 1011.7
20260506164439 15 213 8.0 11.3 0.00 0.97 0.97 90 1011.7
20260506163937 15 159 4.8 9.7 0.00 0.97 0.97 90 1011.6
20260506163432 15 118 3.2 3.2 0.00 0.97 0.97 90 1011.7
20260506162927 15 184 8.0 11.3 0.00 0.97 0.97 90 1011.6
20260506162424 15 163 8.0 12.9 0.00 0.97 0.97 90 1011.7
20260506161921 15 161 4.8 9.7 0.00 0.97 0.97 90 1011.7
20260506161419 15 221 3.2 3.2 0.00 0.97 0.97 90 1011.7
20260506160911 16 213 3.2 3.2 0.00 0.97 0.97 90 1011.9
20260506160408 16 157 6.4 11.3 0.00 0.97 0.97 89 1011.7
20260506155906 16 168 4.8 11.3 0.00 0.97 0.97 89 1011.7
20260506155403 16 155 9.7 14.5 0.00 0.97 0.97 89 1011.7
20260506153525 16 175 3.2 4.8 0.00 0.97 0.97 88 1011.8
20260506153023 16 126 6.4 9.7 0.00 0.97 0.97 88 1011.7
20260506152519 16 177 4.8 11.3 0.00 0.97 0.97 89 1011.8
20260506152018 16 155 8.0 11.3 0.00 0.97 0.97 89 1011.9
20260506151515 16 151 6.4 9.7 0.00 0.97 0.97 89 1012.0
20260506151012 16 196 4.8 4.8 0.00 0.97 0.97 89 1011.9
20260506150508 16 180 4.8 11.3 0.00 0.97 0.97 89 1012.2
20260506150005 16 139 11.3 22.5 0.00 0.97 0.97 89 1012.0
20260506145502 16 151 6.4 12.9 0.00 0.97 0.97 89 1011.9
20260506144959 16 145 6.4 11.3 0.00 0.97 0.97 89 1012.0
20260506144456 16 166 3.2 3.2 0.00 0.97 0.97 90 1012.1
20260506143954 16 167 8.0 12.9 0.00 0.97 0.97 90 1012.2
20260506143451 16 160 6.4 9.7 0.00 0.97 0.97 91 1012.0
20260506142949 16 168 3.2 11.3 0.00 0.97 0.97 91 1012.0
20260506142447 16 189 8.0 14.5 0.00 0.97 0.97 91 1012.2
20260506141944 16 198 4.8 8.0 0.00 0.97 0.97 92 1012.2
20260506141442 15 177 6.4 8.0 0.00 0.97 0.97 92 1012.3
20260506140941 16 152 4.8 9.7 0.00 0.97 0.97 92 1012.3
20260506140437 16 192 6.4 11.3 0.00 0.97 0.97 93 1012.3
20260506135934 16 192 4.8 9.7 0.00 0.97 0.97 94 1012.3
20260506135431 15 200 1.6 1.6 0.00 0.97 0.97 94 1012.7
20260506134927 15 129 3.2 8.0 0.00 0.97 0.97 94 1012.4
20260506134423 15 172 3.2 3.2 0.00 0.97 0.97 94 1012.6
20260506133920 15 151 3.2 4.8 0.00 0.97 0.97 94 1012.5
20260506133418 15 186 1.6 3.2 0.00 0.97 0.97 94 1012.7
20260506132914 15 188 4.8 8.0 0.00 0.97 0.97 94 1012.7
20260506132411 15 129 4.8 8.0 0.00 0.97 0.97 94 1012.7
20260506131909 15 161 3.2 4.8 0.00 0.97 0.97 94 1012.8
20260506131405 15 129 1.6 8.0 0.00 0.97 0.97 94 1013.0
20260506130902 15 165 4.8 9.7 0.00 0.97 0.97 95 1012.9
20260506130358 15 186 6.4 12.9 0.00 0.97 0.97 95 1012.7
20260506125857 15 133 9.7 11.3 0.00 0.97 0.97 95 1012.7
20260506125355 15 124 3.2 4.8 0.00 0.97 0.97 95 1012.7
20260506124853 15 157 1.6 1.6 0.00 0.97 0.97 95 1012.7
20260506124349 15 109 4.8 8.0 0.00 0.97 0.97 95 1012.8
20260506123847 15 155 11.3 14.5 0.00 0.97 0.97 95 1013.1
20260506123345 15 203 4.8 8.0 0.00 0.97 0.97 95 1012.7
20260506122842 15 149 3.2 3.2 0.00 0.97 0.97 95 1013.0
20260506122339 15 167 1.6 3.2 0.00 0.97 0.97 95 1013.0
20260506121837 15 191 1.6 4.8 0.00 0.97 0.97 95 1012.8
20260506121334 15 191 3.2 4.8 0.00 0.97 0.97 95 1012.8
20260506120831 15 162 6.4 11.3 0.00 0.97 0.97 95 1013.1
20260506120329 15 172 3.2 3.2 0.00 0.97 0.97 95 1013.0
20260506115826 14 185 3.2 4.8 0.00 0.97 0.97 95 1013.0
20260506115324 14 144 0.0 0.0 0.00 0.97 0.97 94 1013.0
20260506114822 14 219 0.0 1.6 0.00 0.97 0.97 94 1013.0
20260506114319 14 169 3.2 4.8 0.00 0.97 0.97 94 1013.0
20260506113818 14 178 0.0 0.0 0.00 0.97 0.97 94 1012.9
20260506113315 14 194 4.8 8.0 0.00 0.97 0.97 94 1012.9
20260506112811 13 162 4.8 8.0 0.00 0.97 0.97 94 1013.0
20260506112309 13 179 1.6 3.2 0.00 0.97 0.97 94 1013.0
20260506111806 13 159 1.6 3.2 0.00 0.97 0.97 94 1013.2
20260506111304 13 180 0.0 0.0 0.00 0.97 0.97 94 1013.2
20260506110801 13 182 0.0 0.0 0.00 0.97 0.97 94 1013.1
20260506110258 13 175 0.0 0.0 0.00 0.97 0.97 94 1013.0
20260506105755 13 174 0.0 0.0 0.00 0.97 0.97 93 1013.2
20260506105252 13 174 0.0 0.0 0.00 0.97 0.97 93 1013.3
20260506104749 13 174 0.0 0.0 0.00 0.97 0.97 93 1013.2
20260506104247 13 192 0.0 0.0 0.00 0.97 0.97 93 1013.3
20260506103744 13 177 0.0 0.0 0.00 0.97 0.97 93 1013.6
20260506103242 13 183 1.6 1.6 0.00 0.97 0.97 93 1013.3
20260506102739 13 157 0.0 0.0 0.00 0.97 0.97 93 1013.6
20260506102237 13 152 4.8 4.8 0.00 0.97 0.97 93 1013.6
20260506101734 13 190 3.2 4.8 0.00 0.97 0.97 93 1013.6
20260506101230 13 158 4.8 8.0 0.00 0.97 0.97 93 1013.5
20260506100728 13 159 3.2 4.8 0.00 0.97 0.97 93 1013.4
20260506100226 13 160 3.2 4.8 0.18 0.97 0.97 94 1013.3
20260506095724 13 195 1.6 1.6 0.18 0.97 0.97 94 1013.4
20260506095220 13 242 4.8 9.7 0.13 0.94 0.94 94 1013.6
20260506094718 13 175 1.6 3.2 0.13 0.94 0.94 94 1013.5
20260506094216 13 182 0.0 1.6 0.00 0.91 0.91 94 1013.4
20260506093714 12 170 1.6 1.6 0.18 0.91 0.91 94 1013.6
20260506093211 12 174 1.6 1.6 0.18 0.91 0.91 93 1013.8
20260506092709 12 171 1.6 1.6 0.18 0.91 0.91 94 1013.6
20260506092206 12 191 4.8 9.7 0.13 0.89 0.89 93 1013.7
20260506091704 12 227 3.2 4.8 0.13 0.89 0.89 93 1013.6
20260506091201 12 169 1.6 3.2 0.36 0.86 0.86 93 1013.7
20260506090658 13 174 1.6 1.6 0.48 0.86 0.86 93 1013.7
20260506090155 13 194 3.2 3.2 0.30 0.81 0.81 93 1013.6
20260506085652 13 177 1.6 3.2 0.30 0.79 0.79 93 1013.8
20260506085148 13 179 3.2 4.8 0.43 0.76 0.76 93 1013.7
20260506084645 12 164 1.6 1.6 0.30 0.74 0.74 92 1013.8
20260506084141 12 165 0.0 0.0 0.30 0.69 0.69 92 1013.9
20260506083638 12 176 3.2 4.8 0.30 0.66 0.66 92 1013.6
20260506083136 12 145 3.2 4.8 0.30 0.64 0.64 91 1013.7
20260506082633 12 177 4.8 4.8 0.30 0.61 0.61 91 1014.0
20260506082128 12 161 4.8 8.0 0.48 0.58 0.58 90 1013.6
20260506081627 12 163 3.2 4.8 0.48 0.56 0.56 90 1013.8
20260506081124 12 145 8.0 12.9 0.48 0.51 0.51 90 1013.6
20260506080622 12 166 1.6 3.2 0.61 0.48 0.48 90 1013.6
20260506080118 12 144 3.2 4.8 0.43 0.43 0.43 89 1013.9
20260506073102 13 168 0.0 0.0 0.30 0.23 0.23 88 1013.8
20260506072558 13 168 0.0 0.0 0.00 0.18 0.18 87 1013.7
20260506072057 13 196 1.6 4.8 0.18 0.18 0.18 86 1013.4
20260506071554 13 130 3.2 4.8 0.18 0.18 0.18 86 1013.1
20260506071051 13 184 4.8 9.7 0.00 0.15 0.15 87 1013.4
20260506070548 13 148 1.6 1.6 0.00 0.15 0.15 86 1013.2
20260506062023 14 138 6.4 11.3 0.00 0.00 0.00 80 1013.5
20260506061518 14 207 3.2 4.8 0.00 0.00 0.00 81 1013.5
20260506061016 14 185 6.4 11.3 0.00 0.00 0.00 81 1013.1
20260506060515 14 163 3.2 4.8 0.00 0.00 0.00 81 1013.2
20260506050943 15 142 1.6 3.2 0.00 0.00 0.00 76 1013.0
20260506050441 15 174 4.8 8.0 0.00 0.00 0.00 78 1013.1
20260506044931 14 163 3.2 9.7 0.00 0.00 0.00 80 1013.0
20260506044430 14 200 4.8 8.0 0.00 0.00 0.00 81 1012.9
20260506043926 14 120 1.6 3.2 0.00 0.00 0.00 82 1013.1
20260506043423 14 153 4.8 9.7 0.00 0.00 0.00 82 1013.0
20260506042921 14 115 4.8 8.0 0.00 0.00 0.00 82 1013.0
20260506042420 14 160 4.8 8.0 0.00 0.00 0.00 83 1013.1
20260506041918 14 171 1.6 3.2 0.00 0.00 0.00 83 1013.2
20260506041415 14 152 1.6 3.2 0.00 0.00 0.00 83 1013.0
20260506040912 14 216 3.2 3.2 0.00 0.00 0.00 84 1012.7
20260506040410 14 122 3.2 8.0 0.00 0.00 0.00 83 1012.6
20260506035905 14 174 4.8 8.0 0.00 0.00 0.00 83 1012.7
20260506035403 14 146 6.4 11.3 0.00 0.00 0.00 84 1012.5
20260506034900 15 204 6.4 8.0 0.00 0.00 0.00 84 1012.8
20260506034358 14 150 4.8 8.0 0.00 0.00 0.00 85 1012.8
20260506033854 14 145 6.4 9.7 0.00 0.00 0.00 85 1012.8
20260506033351 14 174 6.4 11.3 0.00 0.00 0.00 86 1012.9
20260506032848 14 178 9.7 16.1 0.00 0.00 0.00 86 1012.8
20260506032345 14 207 4.8 8.0 0.00 0.00 0.00 86 1012.6
20260506031842 14 129 6.4 9.7 0.00 0.00 0.00 86 1012.9
20260506031339 15 201 8.0 11.3 0.00 0.00 0.00 86 1012.9
20260506030837 15 139 4.8 9.7 0.00 0.00 0.00 86 1013.1
20260506030335 15 170 4.8 4.8 0.00 0.00 0.00 86 1013.1
20260506025831 15 169 8.0 11.3 0.00 0.00 0.00 86 1013.2
20260506025327 15 139 8.0 12.9 0.00 0.00 0.00 86 1013.2
20260506024825 15 135 3.2 8.0 0.00 0.00 0.00 86 1013.3
20260506024321 15 179 0.0 1.6 0.00 0.00 0.00 86 1013.3
20260506023818 15 127 4.8 4.8 0.00 0.00 0.00 85 1013.4
20260506023315 15 177 3.2 4.8 0.00 0.00 0.00 85 1013.4
20260506022811 15 182 3.2 4.8 0.00 0.00 0.00 85 1013.4
20260506022309 15 176 1.6 3.2 0.00 0.00 0.00 85 1013.5
20260506021807 15 177 6.4 9.7 0.00 0.00 0.00 84 1013.6
20260506021304 15 141 1.6 3.2 0.00 0.00 0.00 84 1013.7
20260506020800 15 161 3.2 4.8 0.00 0.00 0.00 84 1013.7
20260506020258 15 137 8.0 9.7 0.00 0.00 0.00 84 1013.6
20260506015756 15 157 8.0 11.3 0.00 0.00 0.00 84 1013.5
20260506015253 15 180 1.6 3.2 0.00 0.00 0.00 84 1013.6
20260506014749 15 181 4.8 4.8 0.00 0.00 0.00 84 1013.5
20260506014246 15 162 1.6 3.2 0.00 0.00 0.00 84 1013.5
20260506013743 15 191 3.2 4.8 0.00 0.00 0.00 84 1013.6
20260506013240 15 162 3.2 8.0 0.00 0.00 0.00 84 1013.7
20260506012737 15 166 3.2 4.8 0.00 0.00 0.00 84 1013.8
20260506012234 15 153 4.8 8.0 0.00 0.00 0.00 84 1013.6
20260506011731 15 153 6.4 9.7 0.00 0.00 0.00 83 1013.5
20260506011227 15 139 6.4 8.0 0.00 0.00 0.00 83 1013.5
20260506010726 15 189 4.8 8.0 0.00 0.00 0.00 83 1013.5
20260506010223 15 190 6.4 9.7 0.00 0.00 0.00 83 1013.4
20260506005720 15 115 4.8 9.7 0.00 0.00 0.00 83 1013.4
20260506005216 15 205 4.8 9.7 0.00 0.00 0.00 83 1013.3
20260506004712 15 194 3.2 8.0 0.00 0.00 0.00 83 1013.6
20260506004210 15 155 1.6 1.6 0.00 0.00 0.00 83 1013.6
20260506003706 15 134 6.4 12.9 0.00 0.00 0.00 83 1013.4
20260506003203 15 175 4.8 9.7 0.00 0.00 0.00 83 1013.4
20260506002658 15 155 4.8 9.7 0.00 0.00 0.00 83 1013.6
20260506002155 15 179 8.0 9.7 0.00 0.00 0.00 83 1013.5
20260506001650 15 198 4.8 8.0 0.00 0.00 0.00 82 1013.6
20260506001148 15 176 1.6 3.2 0.00 0.00 0.00 82 1013.7
20260506000645 15 128 1.6 3.2 0.00 0.00 0.00 81 1013.6
20260506000143 15 170 1.6 3.2 0.00 0.00 0.00 80 1013.8
20260505235640 15 193 1.6 3.2 0.00 0.00 0.00 79 1013.8
20260505235138 15 181 1.6 3.2 0.00 0.00 0.00 78 1013.9
20260505234634 15 151 1.6 1.6 0.00 0.00 0.00 77 1014.1
20260505234131 15 177 1.6 3.2 0.00 0.00 0.00 77 1014.3
20260505233628 15 172 0.0 1.6 0.00 0.00 0.00 77 1014.2
20260505233126 15 178 1.6 1.6 0.00 0.00 0.00 77 1014.4
20260505232623 15 162 6.4 9.7 0.00 0.00 0.00 77 1014.4
20260505232121 15 161 3.2 3.2 0.00 0.00 0.00 76 1014.5
20260505231617 15 181 3.2 4.8 0.00 0.00 0.00 76 1014.4
20260505231116 15 139 4.8 4.8 0.00 0.00 0.00 76 1014.4
20260505230614 15 153 3.2 3.2 0.00 0.00 0.00 76 1014.4
20260505230110 15 142 4.8 9.7 0.00 0.00 0.00 76 1014.5
20260505225606 15 184 0.0 0.0 0.00 0.00 0.00 76 1014.6
20260505225102 15 194 0.0 1.6 0.00 0.00 0.00 75 1014.5
20260505224559 15 99 1.6 1.6 0.00 0.00 0.00 75 1014.4